Location: Colonia Mina de C?rbuni
(46.1667°N, 22.7167°E)
Time: 13:12:29
(UTC+00:00)

deb Explorer IX - Pass Details

Date: 16 April 2024
Orbit: 512 x 891 km, 38.7° (Epoch: 23 May)

Event Time Altitude Azimuth Distance (km) Brightness Sun altitude
Rises 16:09:14 0° 269° (W) 3,462 ? 10.9°
Reaches altitude 10° 16:12:36 10° 252° (WSW) 2,470 ? 10.3°
Maximum altitude 16:16:33 19° 210° (SSW) 1,857 ? 9.6°
Drops below altitude 10° 16:20:16 10° 167° (SSE) 2,302 ? 9.0°
Sets 16:23:16 0° 149° (SSE) 3,145 ? 8.5°
